Location: Lawrence
(38.9720°N, 95.2350°W)
Time: 00:26:48
(UTC-05:00)

Amateur Radio Satellites - All Passes

Search period start: 27 August 2015 23:56
Search period end: 28 August 2015 23:56
Location: Lawrence, 38.9720°N, 95.2350°W

Satellite Date Start Highest point End Downlink Frequencies (MHz)
Time Altitude Azimuth
HUMSAT D 27 Aug 23:56:57 00:00:24 22° 267° (W) 00:03:47 437.325/437.525
POPSAT HIP 1 27 Aug 23:57:34 00:01:16 28° 95° (E) 00:05:01 437.405
DUCHIFAT 1 28 Aug 00:02:09 00:05:56 30° 96° (E) 00:09:44 145.980
ANTELSAT 28 Aug 00:11:55 00:16:32 68° 284° (WNW) 00:20:59 437.575/2403.000
QB50P2 28 Aug 00:13:01 00:17:09 44° 99° (E) 00:21:16 145.880/145.840
NANOSAT C BR1 28 Aug 00:17:41 00:21:50 47° 99° (E) 00:25:59 145.865
RS-15 28 Aug 00:21:53 00:31:16 28° 29° (NNE) 00:41:15 29.354- 29.394
Cosmos 2504 28 Aug 00:23:06 00:30:56 68° 93° (E) 00:39:21 435.465 / 435.565
QB50P1 28 Aug 00:29:18 00:33:36 67° 102° (ESE) 00:37:52 145.935-145.965
BUGSAT 1 28 Aug 00:29:46 00:33:45 39° 98° (E) 00:37:45 437.445
ESTCUBE 1 28 Aug 00:30:22 00:34:33 37° 263° (W) 00:38:43 437.505/2401.250
AUBIESAT-1 28 Aug 00:40:18 00:44:10 41° 293° (WNW) 00:47:42 437.475
M-CUBED/EXP-1 PRIME 28 Aug 00:41:13 00:45:01 34° 294° (WNW) 00:48:28 437.505
BEESAT 3 28 Aug 00:43:49 00:46:42 19° 46° (NE) 00:49:39 437.485
BEESAT 2 28 Aug 00:49:14 00:51:54 17° 45° (NE) 00:54:37 435.950
ITUPSAT 1 28 Aug 01:00:41 01:02:17 12° 63° (ENE) 01:04:09 437.325
DANDE 28 Aug 01:01:47 01:04:04 19° 87° (E) 01:06:51 436.750
AISAT 28 Aug 01:03:14 01:05:04 12° 271° (W) 01:06:39 437.250
UNISAT 6 28 Aug 01:03:52 01:07:17 20° 293° (WNW) 01:10:32 437.425
CUSAT 1 28 Aug 01:05:30 01:08:44 46° 93° (E) 01:12:58 437.405
TISAT 1 28 Aug 01:14:05 01:18:17 86° 255° (WSW) 01:22:31 437.305
CUBEBUG 1 28 Aug 01:17:15 01:19:39 14° 270° (W) 01:21:50 437.445
SPROUT 28 Aug 01:28:26 01:32:19 33° 264° (W) 01:36:12 437.525
POLYITAN 1 28 Aug 01:29:00 01:32:37 26° 290° (WNW) 01:36:07 437.675
POPSAT HIP 1 28 Aug 01:33:33 01:37:02 24° 291° (WNW) 01:40:24 437.405
BEESAT 28 Aug 01:34:16 01:38:11 27° 68° (ENE) 01:42:11 436.000
TIGRISAT 28 Aug 01:36:36 01:37:30 10° 297° (WNW) 01:38:07 435.000
DUCHIFAT 1 28 Aug 01:38:14 01:41:35 22° 291° (WNW) 01:44:48 145.980
QB50P2 28 Aug 01:50:02 01:52:42 16° 293° (WNW) 01:55:12 145.880/145.840
NANOSAT C BR1 28 Aug 01:54:50 01:57:18 15° 294° (WNW) 01:59:36 145.865
SWISSCUBE 28 Aug 01:58:44 02:03:21 51° 73° (ENE) 02:07:59 437.505
BUGSAT 1 28 Aug 02:06:04 02:08:56 17° 292° (WNW) 02:11:39 437.445
QB50P1 28 Aug 02:07:44 02:08:57 11° 295° (WNW) 02:09:54 145.935-145.965
Oscar 19 28 Aug 02:10:03 02:14:37 31° 96° (E) 02:19:14 437.125/150
Cosmos 2504 28 Aug 02:17:33 02:24:02 25° 294° (WNW) 02:30:30 435.465 / 435.565
Gurwin Techsat 1B 28 Aug 02:18:50 02:19:10 10° 86° (E) 02:19:56 435.225
BEESAT 3 28 Aug 02:21:02 02:24:49 39° 244° (WSW) 02:28:30 437.485
KKS-1 28 Aug 02:22:09 02:24:02 13° 64° (ENE) 02:26:06 437.445
BEESAT 2 28 Aug 02:26:19 02:30:13 47° 243° (WSW) 02:34:02 435.950
GONETS M04 28 Aug 02:31:22 02:37:00 21° 81° (E) 02:43:05
AIST 2 28 Aug 02:32:00 02:35:53 37° 53° (NE) 02:39:44 435.215
RS-15 28 Aug 02:34:15 02:46:09 77° 57° (ENE) 02:58:27 29.354- 29.394
ITUPSAT 1 28 Aug 02:34:50 02:39:37 75° 258° (WSW) 02:44:26 437.325
PCSat 28 Aug 02:38:06 02:42:38 29° 109° (ESE) 02:47:17 145.827
DANDE 28 Aug 02:45:08 02:47:15 16° 296° (WNW) 02:49:35 436.750
SO-50 28 Aug 02:50:55 02:55:40 83° 120° (ESE) 03:00:36 436.795
CUSAT 1 28 Aug 02:51:34 02:52:10 10° 302° (WNW) 02:52:33 437.405
ITAMSAT 1 28 Aug 02:59:32 03:03:29 22° 93° (E) 03:07:34 435.822/435.867
JAS-2 28 Aug 03:05:29 03:09:58 18° 85° (E) 03:14:27 435.910
BEESAT 28 Aug 03:11:42 03:15:56 30° 264° (W) 03:20:07 436.000
SWISSCUBE 28 Aug 03:38:39 03:41:33 15° 269° (W) 03:44:16 437.505
MOZHAYETS 4 28 Aug 03:39:32 03:41:12 12° 65° (ENE) 03:43:06
STARS 28 Aug 03:48:14 03:52:34 64° 75° (ENE) 03:56:59 437.465
Oscar 19 28 Aug 03:49:23 03:53:57 30° 291° (WNW) 03:58:23 437.125/150
Gurwin Techsat 1B 28 Aug 03:54:37 03:59:58 86° 284° (WNW) 04:05:17 435.225
KKS-1 28 Aug 03:55:48 04:00:12 61° 260° (W) 04:04:37 437.445
AIST 2 28 Aug 04:11:12 04:14:12 19° 248° (WSW) 04:17:03 435.215
PCSat 28 Aug 04:20:54 04:25:56 38° 306° (NW) 04:30:58 145.827
GONETS M04 28 Aug 04:24:18 04:33:00 77° 279° (W) 04:41:44
Cosmos 2499 28 Aug 04:24:41 04:31:25 30° 84° (E) 04:38:44 435.465 / 435.565
AO-7 28 Aug 04:28:39 04:35:48 33° 96° (E) 04:43:06 29.400- 29.500
SO-50 28 Aug 04:33:56 04:36:55 16° 320° (NW) 04:39:48 436.795
ITAMSAT 1 28 Aug 04:38:20 04:43:10 41° 290° (WNW) 04:47:59 435.822/435.867
RS-15 28 Aug 04:47:57 04:57:48 29° 255° (WSW) 05:07:19 29.354- 29.394
JAS-2 28 Aug 04:48:45 04:55:59 72° 286° (WNW) 05:02:19 435.910
HORYU 2 28 Aug 04:59:06 05:03:21 43° 99° (E) 05:07:36 437.375
VERMONT LUNAR 28 Aug 05:00:39 05:02:19 14° 148° (SSE) 05:04:04 437.305
MOZHAYETS 4 28 Aug 05:13:19 05:17:55 69° 259° (W) 05:22:32
CUBESAT XI-V 28 Aug 05:21:18 05:22:58 12° 65° (ENE) 05:24:53 437.345
STARS 28 Aug 05:28:29 05:29:32 10° 272° (W) 05:30:17 437.465
Gurwin Techsat 1B 28 Aug 05:37:40 05:39:14 11° 299° (WNW) 05:40:30 435.225
Cosmos 2499 28 Aug 06:15:56 06:24:06 57° 283° (WNW) 06:32:44 435.465 / 435.565
AO-7 28 Aug 06:20:56 06:28:57 54° 294° (WNW) 06:36:53 29.400- 29.500
GONETS M04 28 Aug 06:27:05 06:31:41 14° 302° (WNW) 06:35:42
O/OREOS (USA 219) 28 Aug 06:30:14 06:34:52 86° 65° (ENE) 06:39:28 437.305
CUTE-I 28 Aug 06:31:56 06:35:01 16° 90° (E) 06:38:21 437.470
VERMONT LUNAR 28 Aug 06:35:29 06:38:27 66° 162° (SSE) 06:41:25 437.305
JAS-2 28 Aug 06:36:31 06:39:42 13° 306° (NW) 06:42:24 435.910
HORYU 2 28 Aug 06:36:41 06:39:41 17° 294° (WNW) 06:42:30 437.375
STRAND 1 28 Aug 06:41:11 06:45:15 25° 67° (ENE) 06:49:26 437.568
CUBESAT XI-V 28 Aug 06:55:19 06:59:54 67° 259° (WSW) 07:04:29 437.345
Cubesat XI-IV 28 Aug 07:24:02 07:29:13 51° 99° (E) 07:34:24 437.490
PRISM 28 Aug 07:35:05 07:39:07 59° 75° (ENE) 07:43:09 437.425
PHONESAT 2.4 28 Aug 07:35:54 07:38:43 24° 151° (SSE) 07:41:34 2401.200-2431.200
YUBILEINY 28 Aug 07:54:17 08:00:28 21° 63° (ENE) 08:07:02 435.215
GOMX 1 28 Aug 07:58:41 08:00:53 13° 87° (E) 08:03:26 467.674
CUTE-I 28 Aug 08:10:20 08:15:35 59° 287° (WNW) 08:20:48 437.470
VERMONT LUNAR 28 Aug 08:12:00 08:14:58 61° 358° (N) 08:17:56 437.305
HO-68 28 Aug 08:17:17 08:18:58 11° 85° (E) 08:21:18 435.675
AO-7 28 Aug 08:17:39 08:20:05 11° 313° (NW) 08:22:00 29.400- 29.500
Cosmos 2499 28 Aug 08:18:52 08:19:49 10° 307° (NW) 08:20:00 435.465 / 435.565
STRAND 1 28 Aug 08:19:35 08:24:18 36° 263° (W) 08:28:59 437.568
DOVE 4 28 Aug 08:31:55 08:35:05 16° 89° (E) 08:38:30 437.250
Cosmos 2491 28 Aug 08:40:35 08:46:08 20° 81° (E) 08:52:09 435.465 / 435.565
BRITE-PL 28 Aug 08:44:01 08:49:23 60° 100° (E) 08:55:00 437.365/2234.400
AIST 1 28 Aug 09:03:08 09:07:16 54° 94° (E) 09:11:26
Cubesat XI-IV 28 Aug 09:05:08 09:08:58 20° 295° (WNW) 09:12:40 437.490
PHONESAT 2.4 28 Aug 09:12:58 09:16:22 88° 176° (S) 09:19:47 2401.200-2431.200
AAUSAT CUBESAT 2 28 Aug 09:14:38 09:16:10 12° 89° (E) 09:17:55 437.432
CUTE 1.7 + AOD 2 28 Aug 09:23:22 09:27:08 31° 96° (E) 09:30:54 437.475
GOMX 1 28 Aug 09:34:11 09:39:36 78° 284° (WNW) 09:45:07 467.674
CANX-2 28 Aug 09:36:27 09:40:35 50° 99° (E) 09:44:41 2200.000
CINEMA 3 28 Aug 09:46:37 09:51:17 38° 96° (E) 09:55:53 145.822/145.860
VERMONT LUNAR 28 Aug 09:48:31 09:51:31 80° 194° (SSW) 09:54:30 437.305
YUBILEINY 28 Aug 09:49:37 09:58:28 79° 266° (W) 10:07:15 435.215
Oscar 11 28 Aug 09:50:05 09:52:16 14° 90° (E) 09:54:40 145.826/435.025
AUBIESAT-1 28 Aug 09:52:02 09:55:25 20° 62° (ENE) 09:58:56 437.475
M-CUBED/EXP-1 PRIME 28 Aug 09:52:50 09:56:37 24° 64° (ENE) 10:00:30 437.505
ISS 28 Aug 10:00:34 10:03:03 21° 132° (SE) 10:05:35 145.825
HO-68 28 Aug 10:00:48 10:08:01 77° 104° (ESE) 10:15:13 435.675
CUBEBUG 2 28 Aug 10:04:59 10:08:51 25° 93° (E) 10:12:42 437.445
SEEDS 28 Aug 10:05:17 10:09:30 79° 101° (E) 10:13:40 437.485
DELFI C3 28 Aug 10:07:39 10:09:27 13° 90° (E) 10:11:27 145.870
DOVE 4 28 Aug 10:08:02 10:13:15 60° 286° (WNW) 10:18:27 437.250
Cosmos 2504 28 Aug 10:12:25 10:18:22 21° 64° (ENE) 10:24:29 435.465 / 435.565
UWE-3 28 Aug 10:20:29 10:24:27 28° 94° (E) 10:28:24 435.000/436.395/437.385
ZACube-1 28 Aug 10:23:10 10:26:40 22° 93° (E) 10:30:13 437.345
BRITE-PL 28 Aug 10:23:44 10:27:31 19° 293° (WNW) 10:31:13 437.365/2234.400
UNISAT 6 28 Aug 10:24:07 10:28:09 30° 70° (ENE) 10:32:17 437.425
FUNcube-1 28 Aug 10:30:18 10:34:03 26° 94° (E) 10:37:47 145.935
Cosmos 2491 28 Aug 10:33:25 10:42:09 78° 279° (W) 10:50:53 435.465 / 435.565
COMPASS 1 28 Aug 10:34:10 10:38:17 60° 285° (WNW) 10:42:21 437.405
AIST 1 28 Aug 10:43:49 10:45:22 11° 292° (WNW) 10:46:40
POLYITAN 1 28 Aug 10:45:43 10:48:30 18° 68° (ENE) 10:51:27 437.675
AAUSAT CUBESAT 2 28 Aug 10:48:06 10:52:07 49° 286° (WNW) 10:56:05 437.432
POPSAT HIP 1 28 Aug 10:49:48 10:52:44 19° 68° (ENE) 10:55:49 437.405
PHONESAT 2.4 28 Aug 10:50:59 10:54:23 66° 4° (N) 10:57:46 2401.200-2431.200
TIGRISAT 28 Aug 10:53:45 10:58:19 60° 74° (ENE) 11:02:59 435.000
DUCHIFAT 1 28 Aug 10:53:51 10:56:54 20° 68° (ENE) 11:00:04 145.980
CUTE 1.7 + AOD 2 28 Aug 10:59:42 11:02:52 20° 291° (WNW) 11:05:55 437.475
QB50P2 28 Aug 11:04:55 11:08:33 29° 71° (ENE) 11:12:16 145.880/145.840
ANTELSAT 28 Aug 11:09:00 11:13:40 89° 234° (SW) 11:18:26 437.575/2403.000
NANOSAT C BR1 28 Aug 11:09:08 11:12:48 30° 71° (ENE) 11:16:34 145.865
DX 1 28 Aug 11:11:05 11:13:39 16° 91° (E) 11:16:24 434.975-435.025
CANX-2 28 Aug 11:13:58 11:16:06 13° 294° (WNW) 11:18:03 2200.000
50 SAT 28 Aug 11:15:39 11:16:46 11° 89° (E) 11:18:07 437.505
GOMX 1 28 Aug 11:15:51 11:17:00 10° 298° (WNW) 11:17:47 467.674
AISAT 28 Aug 11:17:36 11:19:11 12° 89° (E) 11:21:02 437.250
BUGSAT 1 28 Aug 11:19:11 11:22:20 23° 69° (ENE) 11:25:36 437.445
QB50P1 28 Aug 11:20:43 11:24:41 42° 73° (ENE) 11:28:44 145.935-145.965
SO-50 28 Aug 11:23:42 11:28:34 53° 54° (NE) 11:33:18 436.795
CINEMA 3 28 Aug 11:24:13 11:28:14 24° 292° (WNW) 11:32:05 145.822/145.860
Oscar 11 28 Aug 11:24:36 11:28:46 46° 286° (WNW) 11:32:52 145.826/435.025
AUBIESAT-1 28 Aug 11:25:16 11:29:48 45° 257° (WSW) 11:34:21 437.475
VERMONT LUNAR 28 Aug 11:25:29 11:27:42 19° 210° (SSW) 11:29:54 437.305
M-CUBED/EXP-1 PRIME 28 Aug 11:26:42 11:31:09 38° 258° (WSW) 11:35:37 437.505
PCSat 28 Aug 11:26:59 11:30:58 21° 47° (NE) 11:35:04 145.827
UKube-1 28 Aug 11:29:27 11:32:50 22° 94° (E) 11:36:18 .
ISS 28 Aug 11:36:14 11:39:18 38° 328° (NNW) 11:42:21 145.825
DANDE 28 Aug 11:38:24 11:44:52 35° 73° (ENE) 11:52:25 436.750
CUSAT 1 28 Aug 11:39:47 11:47:02 50° 76° (ENE) 11:55:02 437.405
DELFI C3 28 Aug 11:40:59 11:44:47 42° 286° (WNW) 11:48:32 145.870
HUMSAT D 28 Aug 11:41:04 11:45:19 64° 101° (E) 11:49:28 437.325/437.525
CUBEBUG 2 28 Aug 11:41:22 11:45:32 30° 290° (WNW) 11:49:32 437.445
VELOX 1 28 Aug 11:45:23 11:48:58 24° 94° (E) 11:52:37 145.980
YUBILEINY 28 Aug 11:49:52 11:54:02 14° 282° (WNW) 11:57:31 435.215
HO-68 28 Aug 11:49:56 11:55:05 21° 301° (WNW) 12:00:00 435.675
UWE-3 28 Aug 11:57:00 12:00:54 26° 291° (WNW) 12:04:38 435.000/436.395/437.385
ZACube-1 28 Aug 11:59:02 12:03:05 32° 289° (WNW) 12:06:59 437.345
UNISAT 6 28 Aug 12:01:01 12:04:55 26° 266° (W) 12:08:47 437.425
Cosmos 2504 28 Aug 12:03:09 12:11:44 79° 265° (W) 12:19:48 435.465 / 435.565
FUNcube-1 28 Aug 12:06:27 12:10:19 27° 290° (WNW) 12:14:02 145.935
POLYITAN 1 28 Aug 12:20:09 12:24:08 38° 262° (W) 12:28:08 437.675
ESTCUBE 1 28 Aug 12:23:49 12:28:09 48° 99° (E) 12:32:30 437.505/2401.250
POPSAT HIP 1 28 Aug 12:24:30 12:28:23 34° 263° (W) 12:32:17 437.405
DUCHIFAT 1 28 Aug 12:28:42 12:32:30 32° 264° (W) 12:36:19 145.980
PHONESAT 2.4 28 Aug 12:28:55 12:32:18 60° 199° (SSW) 12:35:39 2401.200-2431.200
TIGRISAT 28 Aug 12:33:20 12:35:32 13° 272° (W) 12:37:29 435.000
Cosmos 2491 28 Aug 12:36:03 12:40:49 15° 301° (WNW) 12:44:59 435.465 / 435.565
QB50P2 28 Aug 12:41:05 12:44:27 22° 266° (W) 12:47:46 145.880/145.840
NANOSAT C BR1 28 Aug 12:45:26 12:48:42 21° 267° (W) 12:51:52 145.865
DX 1 28 Aug 12:45:59 12:50:09 43° 287° (WNW) 12:54:17 434.975-435.025
50 SAT 28 Aug 12:47:54 12:51:38 45° 286° (WNW) 12:55:18 437.505
AISAT 28 Aug 12:51:47 12:56:12 59° 286° (WNW) 13:00:36 437.250
BUGSAT 1 28 Aug 12:54:18 12:57:42 25° 265° (W) 13:01:06 437.445
QB50P1 28 Aug 12:58:14 13:00:48 15° 269° (W) 13:03:13 145.935-145.965
TISAT 1 28 Aug 13:00:48 13:03:27 16° 92° (E) 13:06:14 437.305
CUBEBUG 1 28 Aug 13:04:41 13:09:05 72° 285° (WNW) 13:13:28 437.445
UKube-1 28 Aug 13:05:11 13:09:00 30° 290° (WNW) 13:12:44 .
SO-50 28 Aug 13:05:24 13:08:42 18° 250° (WSW) 13:11:48 436.795
PCSat 28 Aug 13:09:30 13:14:51 61° 246° (WSW) 13:20:10 145.827
ISS 28 Aug 13:15:14 13:16:26 11° 347° (NNW) 13:17:34 145.825
SPROUT 28 Aug 13:15:44 13:19:53 44° 98° (E) 13:24:03 437.525
HUMSAT D 28 Aug 13:19:13 13:20:32 11° 295° (WNW) 13:21:36 437.325/437.525
DANDE 28 Aug 13:21:06 13:28:08 49° 266° (W) 13:36:07 436.750
VELOX 1 28 Aug 13:21:37 13:25:32 29° 290° (WNW) 13:29:22 145.980
CUSAT 1 28 Aug 13:22:39 13:29:28 35° 269° (W) 13:36:36 437.405
Oscar 19 28 Aug 13:25:38 13:30:24 40° 71° (ENE) 13:35:15 437.125/150
Gurwin Techsat 1B 28 Aug 13:37:10 13:40:20 17° 64° (ENE) 13:43:43 435.225
Cosmos 2504 28 Aug 13:58:37 14:02:39 14° 283° (WNW) 14:05:59 435.465 / 435.565
SWISSCUBE 28 Aug 14:01:47 14:04:12 14° 90° (E) 14:06:52 437.505
ESTCUBE 1 28 Aug 14:01:53 14:04:40 16° 294° (WNW) 14:07:17 437.505/2401.250
PHONESAT 2.4 28 Aug 14:07:51 14:09:47 14° 213° (SSW) 14:11:38 2401.200-2431.200
ITAMSAT 1 28 Aug 14:16:16 14:20:44 31° 69° (ENE) 14:25:17 435.822/435.867
TISAT 1 28 Aug 14:35:24 14:39:24 39° 288° (WNW) 14:43:22 437.305
GONETS M04 28 Aug 14:36:03 14:44:33 51° 76° (ENE) 14:53:07
ITUPSAT 1 28 Aug 14:36:59 14:41:09 30° 96° (E) 14:45:22 437.325
SPROUT 28 Aug 14:52:55 14:55:38 16° 293° (WNW) 14:58:11 437.525
JAS-2 28 Aug 14:57:09 15:04:18 50° 69° (ENE) 15:11:51 435.910
Oscar 19 28 Aug 15:05:50 15:09:56 23° 267° (W) 15:13:55 437.125/150
BEESAT 28 Aug 15:12:20 15:17:06 74° 103° (ESE) 15:21:51 436.000
Gurwin Techsat 1B 28 Aug 15:14:35 15:19:51 62° 259° (W) 15:25:08 435.225
AO-7 28 Aug 15:26:14 15:33:49 42° 63° (ENE) 15:41:30 29.400- 29.500
SWISSCUBE 28 Aug 15:37:49 15:42:28 55° 287° (WNW) 15:47:05 437.505
STARS 28 Aug 15:40:55 15:42:52 13° 90° (E) 15:45:03 437.465
KKS-1 28 Aug 15:48:23 15:52:14 28° 96° (E) 15:56:06 437.445
ITAMSAT 1 28 Aug 15:55:41 16:00:14 30° 264° (W) 16:04:43 435.822/435.867
HORYU 2 28 Aug 15:56:07 16:00:09 35° 71° (ENE) 16:04:17 437.375
Cosmos 2499 28 Aug 16:08:53 16:17:23 53° 76° (ENE) 16:25:23 435.465 / 435.565
BEESAT 3 28 Aug 16:11:45 16:15:37 45° 117° (ESE) 16:19:33 437.485
ITUPSAT 1 28 Aug 16:14:58 16:18:58 27° 291° (WNW) 16:22:51 437.325
BEESAT 2 28 Aug 16:18:12 16:22:00 39° 116° (ESE) 16:25:53 435.950
ISS 28 Aug 16:28:39 16:31:20 23° 27° (NNE) 16:34:02 145.825
AIST 2 28 Aug 16:32:07 16:32:36 10° 109° (ESE) 16:33:22 435.215
GONETS M04 28 Aug 16:33:28 16:41:07 33° 274° (W) 16:48:32
JAS-2 28 Aug 16:42:47 16:49:32 34° 268° (W) 16:56:27 435.910
BEESAT 28 Aug 16:52:31 16:54:23 12° 297° (WNW) 16:55:59 436.000
JUGNU 28 Aug 16:54:55 16:56:24 11° 180° (S) 16:57:53 437.505
RS-15 28 Aug 16:56:16 17:06:40 55° 113° (ESE) 17:17:32 29.354- 29.394
MOZHAYETS 4 28 Aug 17:09:59 17:13:58 30° 95° (E) 17:17:59
STARS 28 Aug 17:15:20 17:19:41 53° 287° (WNW) 17:24:01 437.465
AO-7 28 Aug 17:18:41 17:26:34 44° 261° (W) 17:34:25 29.400- 29.500
KKS-1 28 Aug 17:25:01 17:28:47 26° 291° (WNW) 17:32:27 437.445
HORYU 2 28 Aug 17:33:30 17:36:54 20° 267° (W) 17:40:13 437.375
BEESAT 3 28 Aug 17:50:56 17:53:48 18° 314° (NW) 17:56:34 437.485
CUTE-I 28 Aug 17:52:21 17:56:32 25° 67° (ENE) 18:00:50 437.470
BEESAT 2 28 Aug 17:57:07 18:00:14 20° 313° (NW) 18:03:15 435.950
SRMSAT 28 Aug 17:58:05 17:59:11 11° 175° (S) 18:00:20 437.500
Cosmos 2499 28 Aug 18:02:42 18:10:10 32° 275° (W) 18:17:02 435.465 / 435.565
ISS 28 Aug 18:04:45 18:07:51 42° 224° (SW) 18:10:55 145.825
AIST 2 28 Aug 18:06:26 18:10:40 69° 302° (WNW) 18:14:55 435.215
Cubesat XI-IV 28 Aug 18:44:50 18:50:09 76° 75° (ENE) 18:55:29 437.490
MOZHAYETS 4 28 Aug 18:47:21 18:51:05 25° 291° (WNW) 18:54:43
CUBESAT XI-V 28 Aug 18:53:22 18:57:30 32° 96° (E) 19:01:42 437.345
O/OREOS (USA 219) 28 Aug 19:05:31 19:06:41 11° 99° (E) 19:08:10 437.305
RS-15 28 Aug 19:09:00 19:19:26 45° 316° (NW) 19:30:11 29.354- 29.394
AIST 1 28 Aug 19:13:10 19:14:53 12° 69° (ENE) 19:16:49
CUTE-I 28 Aug 19:31:25 19:36:25 40° 262° (W) 19:41:24 437.470
DOVE 4 28 Aug 19:37:45 19:39:38 13° 63° (ENE) 19:41:48 437.250
SRMSAT 28 Aug 19:46:25 19:47:27 10° 185° (S) 19:48:27 437.500
BRITE-PL 28 Aug 19:54:27 19:58:34 52° 74° (ENE) 20:03:00 437.365/2234.400
CUTE 1.7 + AOD 2 28 Aug 20:15:31 20:18:39 21° 69° (ENE) 20:21:55 437.475
HO-68 28 Aug 20:27:49 20:34:37 51° 68° (ENE) 20:41:31 435.675
CANX-2 28 Aug 20:28:13 20:32:00 31° 71° (ENE) 20:35:50 2200.000
Cubesat XI-IV 28 Aug 20:28:40 20:30:56 12° 272° (W) 20:32:51 437.490
STRAND 1 28 Aug 20:30:43 20:35:50 83° 103° (ESE) 20:40:58 437.568
CUBESAT XI-V 28 Aug 20:31:05 20:34:48 24° 291° (WNW) 20:38:25 437.345
O/OREOS (USA 219) 28 Aug 20:41:08 20:45:37 63° 293° (WNW) 20:50:09 437.305
GOMX 1 28 Aug 20:41:25 20:45:48 83° 258° (WSW) 20:50:31 467.674
Cosmos 2491 28 Aug 20:45:21 20:53:45 50° 76° (ENE) 21:02:14 435.465 / 435.565
Oscar 11 28 Aug 20:45:41 20:46:20 10° 64° (ENE) 20:47:15 145.826/435.025
CINEMA 3 28 Aug 20:47:13 20:51:10 29° 70° (ENE) 20:55:22 145.822/145.860
AIST 1 28 Aug 20:48:44 20:52:56 51° 266° (W) 20:57:09
PRISM 28 Aug 20:53:30 20:57:35 69° 285° (WNW) 21:01:40 437.425
YUBILEINY 28 Aug 20:54:33 21:01:01 25° 83° (E) 21:07:53 435.215
SEEDS 28 Aug 20:55:51 20:59:54 46° 74° (ENE) 21:04:00 437.485
CUBEBUG 2 28 Aug 21:02:22 21:05:36 20° 67° (ENE) 21:09:02 437.445
DOVE 4 28 Aug 21:12:21 21:16:47 65° 260° (W) 21:21:33 437.250
UWE-3 28 Aug 21:16:41 21:20:04 21° 68° (ENE) 21:23:38 435.000/436.395/437.385
ZACube-1 28 Aug 21:18:31 21:21:19 17° 67° (ENE) 21:24:19 437.345
COMPASS 1 28 Aug 21:23:36 21:27:48 76° 77° (ENE) 21:32:02 437.405
FUNcube-1 28 Aug 21:25:14 21:28:20 19° 67° (ENE) 21:31:38 145.935
RS-15 28 Aug 21:28:25 21:36:02 19° 348° (NNW) 21:43:42 29.354- 29.394
BRITE-PL 28 Aug 21:35:47 21:37:40 12° 273° (W) 21:39:20 437.365/2234.400
AAUSAT CUBESAT 2 28 Aug 21:36:59 21:41:12 89° 255° (WSW) 21:45:25 437.432
CUTE 1.7 + AOD 2 28 Aug 21:50:31 21:54:23 32° 264° (W) 21:58:14 437.475
CANX-2 28 Aug 22:04:42 22:07:59 20° 267° (W) 22:11:10 2200.000
DX 1 28 Aug 22:06:42 22:08:28 13° 65° (ENE) 22:10:27 434.975-435.025
STRAND 1 28 Aug 22:12:26 22:14:26 12° 298° (WNW) 22:16:09 437.568
HO-68 28 Aug 22:16:29 22:22:39 29° 266° (W) 22:28:40 435.675
Oscar 11 28 Aug 22:17:38 22:21:59 72° 259° (WSW) 22:26:21 145.826/435.025
UKube-1 28 Aug 22:23:47 22:26:33 17° 67° (ENE) 22:29:29 .
CINEMA 3 28 Aug 22:24:27 22:28:21 26° 267° (W) 22:32:20 145.822/145.860
DELFI C3 28 Aug 22:26:10 22:30:14 87° 257° (WSW) 22:34:19 145.870
HUMSAT D 28 Aug 22:31:20 22:35:19 38° 72° (ENE) 22:39:21 437.325/437.525
SEEDS 28 Aug 22:33:40 22:35:59 14° 270° (W) 22:38:07 437.485
CUBEBUG 2 28 Aug 22:37:40 22:42:00 41° 263° (W) 22:46:26 437.445
VELOX 1 28 Aug 22:42:23 22:45:26 19° 67° (ENE) 22:48:37 145.980
Cosmos 2491 28 Aug 22:42:45 22:50:22 34° 274° (W) 22:57:48 435.465 / 435.565
Cosmos 2504 28 Aug 22:43:56 22:47:32 14° 78° (ENE) 22:51:49 435.465 / 435.565
YUBILEINY 28 Aug 22:48:29 22:57:12 66° 281° (W) 23:05:59 435.215
TIGRISAT 28 Aug 22:48:33 22:50:48 14° 89° (E) 22:53:15 435.000
UWE-3 28 Aug 22:52:09 22:56:21 36° 264° (W) 23:00:39 435.000/436.395/437.385
ZACube-1 28 Aug 22:52:58 22:57:19 46° 262° (W) 23:01:44 437.345
FUNcube-1 28 Aug 23:00:08 23:04:22 40° 263° (W) 23:08:41 145.935
ANTELSAT 28 Aug 23:03:12 23:06:38 21° 92° (E) 23:10:07 437.575/2403.000
AUBIESAT-1 28 Aug 23:09:09 23:10:54 13° 94° (E) 23:12:45 437.475
M-CUBED/EXP-1 PRIME 28 Aug 23:10:25 23:12:57 17° 95° (E) 23:15:29 437.505
ESTCUBE 1 28 Aug 23:22:17 23:26:24 38° 72° (ENE) 23:30:35 437.505/2401.250
50 SAT 28 Aug 23:29:27 23:33:24 77° 78° (ENE) 23:37:23 437.505
DX 1 28 Aug 23:40:01 23:44:16 58° 259° (W) 23:48:34 434.975-435.025
TISAT 1 28 Aug 23:53:28 23:54:38 11° 65° (ENE) 23:56:02 437.305
